Volver al catálogo

CZ-6A DEB

ActivoPO
NORAD 61387·DEBRIS·🇨🇳 China

Lanzado Aug 6, 2024 desde Taiyuan Satellite Launch Center

Loading…

Próximos Pases (próximas 24 horas)

TLE

ActualizadoSource: Space-Track

Época: Sep 14, 2026, 10:43 UTC

1 61387U 24140XC  26257.44653657  .00001582  00000-0  65622-3 0  9998
2 61387  89.0032 264.6453 0038375 222.2565 137.5670 14.25698398105199

Sigue CZ-6A DEB en tiempo real con AllMySat

Download on the App Store